Flag for U.S.A. Weather past 2 weeks in Buffalo, New York, U.S.A.

Now
56 °F

Sunny.


Feels Like: 53 °F
Forecast: 36 / 59 °F
Wind: 13 mph from Southwest

Location: Greater Buffalo International Airport

Current Time: May 23, 2015 at 12:45:37 PM

Latest Report: May 23, 2015 at 11:54 AM


Visibility: 10 mi

Pressure: 30.44 "Hg

Humidity: 28%

Dew point: 23 °F

Location of BuffaloLocation

Historic Weather in Buffalo — Graph

°F

Buffalo temperature yesterday

Maximum temperature yesterday: 57 °F (at 12:54 PM)
Minimum temperature yesterday: 41 °F (at 11:54 PM)
Average temperature yesterday: 51 °F

Past Weeks' High & Low Weather Summary

 TemperatureHumidityPressure
High89 °F (May 9, 3:54 PM)96% (May 19, 5:54 AM)30.49 "Hg (May 19, 5:54 AM)
Low34 °F (May 23, 5:54 AM)24% (May 14, 4:54 PM)29.79 "Hg (May 12, 1:54 AM)
Average61 °F64%30.08 "Hg
* Reported May 8 10:54 AM — May 23 10:54 AM, Buffalo, Weather by CustomWeather, © 2015

Note: Actual official high and low records may vary slightly from our data, if they occured in-between our weather recording intervals... More about our weather records

Advertising

Buffalo weather history for previous 24 hours

 ConditionsComfort  
Time TempWeatherWind HumidityBarometerVisibility
10:54 AM
Sat, May 23
54 °FSunny.14 mph33%30.45 "Hg10 mi
9:54 AM52 °FSunny.13 mph34%30.45 "Hg10 mi
8:54 AM48 °FPassing clouds.10 mph43%30.44 "Hg10 mi
7:54 AM41 °FPassing clouds.7 mph62%30.42 "Hg10 mi
6:54 AM36 °FSunny.5 mph75%30.40 "Hg10 mi
5:54 AM34 °FClear.5 mph79%30.39 "Hg10 mi
4:54 AM35 °FClear.5 mph75%30.38 "Hg10 mi
3:54 AM37 °FPassing clouds.3 mph73%30.37 "Hg10 mi
2:54 AM38 °FPassing clouds.5 mph68%30.36 "Hg10 mi
1:54 AM41 °FPassing clouds.No wind55%30.34 "Hg10 mi
12:54 AM41 °FPassing clouds.3 mph58%30.33 "Hg10 mi
11:54 PM
Fri, May 22
41 °FClear.6 mph58%30.32 "Hg10 mi
10:54 PM43 °FClear.9 mph56%30.31 "Hg10 mi
9:54 PM45 °FClear.9 mph51%30.29 "Hg10 mi
8:54 PM48 °FPassing clouds.8 mph46%30.25 "Hg10 mi
7:54 PM52 °FSunny.9 mph38%30.22 "Hg10 mi
6:54 PM55 °FPassing clouds.16 mph29%30.18 "Hg10 mi
5:54 PM57 °FPassing clouds.16 mph31%30.16 "Hg10 mi
4:54 PM56 °FPartly sunny.12 mph53%30.12 "Hg10 mi
3:54 PM54 °FPartly sunny.20 mph55%30.12 "Hg10 mi
2:54 PM54 °FPartly sunny.20 mph53%30.10 "Hg10 mi
1:54 PM56 °FPartly sunny.15 mph53%30.09 "Hg10 mi
12:54 PM57 °FPartly sunny.12 mph51%30.07 "Hg10 mi
Weather by CustomWeather, © 2015

See weather overviewHow to use our weather pages